Gainesville, TX

4:18 PM CDT on May 26, 2017 (GMT -0500)
Gainesville Municipal

Weather History for KGLE - January, 2014

Change the Weather History Date:

Saturday, January 18, 2014

  Actual Average (KDTO) Record (KDTO)
Temperature  
Mean Temperature 49 °F -  
Max Temperature 68 °F 54 °F 73 °F (2006)
Min Temperature 30 °F 32 °F 16 °F (2008)
Degree Days  
Heating Degree Days 16    
Moisture  
Dew Point 20 °F    
Average Humidity 37    
Maximum Humidity 70    
Minimum Humidity 15    
Precipitation  
Precipitation 0.00 in - - ()
Sea Level Pressure  
Sea Level Pressure 30.13 in    
Wind  
Wind Speed 8 mph (SW)    
Max Wind Speed 18 mph    
Max Gust Speed 26 mph    
Visibility 10 miles    
Events      
Averages and records for this station are not official NWS values.
T = Trace of Precipitation, MM = Missing Value Source: NWS Daily Summary

Daily Weather History Graph

Daily Weather History Graph

Search for Another Location

Airport or City:

Trip Planner

Search our weather history database for the weather conditions in past years. The results will help you decide how hot, cold, wet, or windy it might be!

Date:

Astronomy

Jan. 18, 2014 Rise Set
Actual Time 7:32 AM CST 5:46 PM CST
Civil Twilight 7:05 AM CST 6:13 PM CST
Nautical Twilight 6:35 AM CST 6:43 PM CST
Astronomical Twilight 6:05 AM CST 7:13 PM CST
Moon 8:19 PM CST (1/18) 8:41 AM CST (1/18)
Length of Visible Light 11h 07m
Length of Day
10h 14m
Waning Gibbous, 94% of the Moon is Illuminated
Jan 18
Waning Gibbous
Jan 23
Last Quarter
Jan 30
New
Feb 6
First Quarter
Feb 14
Full

Hourly Weather History & Observations

Time (CST) Temp. Windchill Dew Point Humidity Pressure Visibility Wind Dir Wind Speed Gust Speed Precip Events Conditions
12:15 AM 35.8 °F 30.1 °F 15.1 °F 43% 30.18 in 10.0 mi South 6.9 mph - N/A   Clear
12:35 AM 35.8 °F 30.1 °F 14.7 °F 42% 30.17 in 10.0 mi South 6.9 mph - N/A   Clear
12:55 AM 35.8 °F 29.4 °F 15.6 °F 44% 30.17 in 10.0 mi South 8.1 mph - N/A   Clear
1:15 AM 36.0 °F 29.6 °F 16.2 °F 45% 30.17 in 10.0 mi South 8.1 mph - N/A   Clear
1:35 AM 35.8 °F 30.9 °F 17.1 °F 47% 30.17 in 10.0 mi South 5.8 mph - N/A   Clear
1:55 AM 35.8 °F 30.9 °F 18.1 °F 49% 30.17 in 10.0 mi South 5.8 mph - N/A   Clear
2:15 AM 35.6 °F 30.7 °F 18.7 °F 50% 30.17 in 10.0 mi South 5.8 mph - N/A   Clear
2:35 AM 35.8 °F 30.1 °F 17.4 °F 47% 30.17 in 10.0 mi South 6.9 mph - N/A   Clear
2:55 AM 35.6 °F 30.7 °F 19.4 °F 52% 30.17 in 10.0 mi South 5.8 mph - N/A   Clear
3:15 AM 35.1 °F 31.0 °F 19.2 °F 53% 30.16 in 10.0 mi SSE 4.6 mph - N/A   Clear
3:35 AM 33.3 °F 27.1 °F 19.9 °F 58% 30.16 in 10.0 mi South 6.9 mph - N/A   Clear
3:55 AM 33.3 °F 27.9 °F 19.8 °F 58% 30.16 in 10.0 mi SSE 5.8 mph - N/A   Clear
4:15 AM 33.3 °F 27.9 °F 20.3 °F 59% 30.15 in 10.0 mi SSE 5.8 mph - N/A   Clear
4:35 AM 31.1 °F 26.4 °F 19.9 °F 63% 30.15 in 10.0 mi South 4.6 mph - N/A   Clear
4:55 AM 33.3 °F 27.1 °F 21.4 °F 62% 30.14 in 10.0 mi South 6.9 mph - N/A   Clear
5:15 AM 33.3 °F 27.9 °F 19.4 °F 57% 30.14 in 10.0 mi South 5.8 mph - N/A   Clear
5:35 AM 33.3 °F 28.9 °F 20.8 °F 60% 30.14 in 10.0 mi South 4.6 mph - N/A   Clear
5:55 AM 33.3 °F 30.2 °F 22.1 °F 64% 30.14 in 10.0 mi SE 3.5 mph - N/A   Clear
6:15 AM 33.3 °F 30.2 °F 22.1 °F 64% 30.14 in 10.0 mi SE 3.5 mph - N/A   Clear
6:35 AM 31.5 °F 26.8 °F 20.8 °F 65% 30.14 in 10.0 mi SSE 4.6 mph - N/A   Clear
6:55 AM 31.1 °F 26.4 °F 21.0 °F 66% 30.14 in 10.0 mi SE 4.6 mph - N/A   Clear
7:15 AM 33.3 °F 28.9 °F 22.5 °F 65% 30.14 in 10.0 mi SE 4.6 mph - N/A   Clear
7:35 AM 30.4 °F 25.6 °F 21.2 °F 69% 30.14 in 10.0 mi SSE 4.6 mph - N/A   Clear
7:55 AM 31.1 °F 27.7 °F 22.1 °F 69% 30.14 in 10.0 mi SSE 3.5 mph - N/A   Clear
8:15 AM 33.3 °F 30.2 °F 24.3 °F 70% 30.14 in 10.0 mi SSE 3.5 mph - N/A   Clear
8:35 AM 35.8 °F 31.9 °F 24.8 °F 64% 30.14 in 10.0 mi SSE 4.6 mph - N/A   Clear
8:55 AM 39.2 °F 35.0 °F 25.3 °F 58% 30.14 in 10.0 mi South 5.8 mph - N/A   Clear
9:15 AM 48.2 °F - 25.2 °F 41% 30.15 in 10.0 mi SSW 9.2 mph - N/A   Clear
9:35 AM 51.4 °F - 19.8 °F 29% 30.15 in 10.0 mi SW 10.4 mph 16.1 mph N/A   Clear
9:55 AM 53.6 °F - 17.6 °F 24% 30.15 in 10.0 mi SW 16.1 mph 19.6 mph N/A   Clear
10:15 AM 55.4 °F - 17.2 °F 22% 30.15 in 10.0 mi SW 16.1 mph 26.5 mph N/A   Clear
10:35 AM 55.8 °F - 16.0 °F 21% 30.16 in 10.0 mi SW 16.1 mph 21.9 mph N/A   Clear
10:55 AM 55.8 °F - 15.3 °F 20% 30.15 in 10.0 mi WSW 18.4 mph 25.3 mph N/A   Clear
11:15 AM 57.4 °F - 16.7 °F 20% 30.14 in 10.0 mi WSW 16.1 mph 25.3 mph N/A   Clear
11:35 AM 59.2 °F - 16.5 °F 19% 30.13 in 10.0 mi WSW 15.0 mph 20.7 mph N/A   Clear
11:55 AM 60.8 °F - 16.7 °F 18% 30.12 in 10.0 mi WSW 15.0 mph 21.9 mph N/A   Clear
12:15 PM 61.3 °F - 16.7 °F 18% 30.11 in 10.0 mi WSW 17.3 mph - N/A   Clear
12:35 PM 63.5 °F - 17.8 °F 17% 30.10 in 10.0 mi WSW 16.1 mph 20.7 mph N/A   Clear
12:55 PM 63.5 °F - 18.0 °F 17% 30.08 in 10.0 mi West 17.3 mph 25.3 mph N/A   Clear
1:15 PM 63.7 °F - 18.3 °F 17% 30.07 in 10.0 mi West 17.3 mph 20.7 mph N/A   Clear
1:35 PM 64.4 °F - 19.2 °F 18% 30.06 in 10.0 mi West 13.8 mph - N/A   Clear
1:55 PM 66.0 °F - 19.4 °F 17% 30.05 in 10.0 mi West 13.8 mph 17.3 mph N/A   Clear
2:15 PM 66.0 °F - 19.4 °F 17% 30.04 in 10.0 mi West 13.8 mph 21.9 mph N/A   Clear
2:35 PM 67.5 °F - 20.3 °F 17% 30.04 in 10.0 mi West 10.4 mph 20.7 mph N/A   Clear
2:55 PM 68.4 °F - 19.8 °F 16% 30.04 in 10.0 mi West 13.8 mph 23.0 mph N/A   Clear
3:15 PM 68.4 °F - 19.4 °F 16% 30.04 in 10.0 mi West 10.4 mph 17.3 mph N/A   Clear
3:35 PM 68.4 °F - 20.1 °F 16% 30.05 in 10.0 mi West 12.7 mph - N/A   Clear
3:55 PM 68.4 °F - 19.2 °F 15% 30.04 in 10.0 mi West 9.2 mph - N/A   Clear
4:15 PM 68.4 °F - 20.1 °F 16% 30.05 in 10.0 mi West 9.2 mph - N/A   Clear
4:35 PM 66.7 °F - 18.3 °F 16% 30.05 in 10.0 mi West 9.2 mph - N/A   Clear
4:55 PM 65.8 °F - 18.0 °F 16% 30.05 in 10.0 mi West 9.2 mph - N/A   Clear
5:15 PM 62.4 °F - 18.1 °F 18% 30.06 in 10.0 mi West 6.9 mph - N/A   Clear
5:35 PM 60.4 °F - 19.2 °F 20% 30.07 in 10.0 mi West 5.8 mph - N/A   Clear
5:55 PM 58.3 °F - 19.6 °F 22% 30.08 in 10.0 mi West 6.9 mph - N/A   Clear
6:15 PM 55.8 °F - 19.2 °F 24% 30.08 in 10.0 mi West 6.9 mph - N/A   Clear
6:35 PM 55.8 °F - 20.5 °F 25% 30.10 in 10.0 mi WNW 6.9 mph - N/A   Clear
6:55 PM 55.8 °F - 18.5 °F 23% 30.11 in 10.0 mi WNW 9.2 mph - N/A   Clear
7:15 PM 51.8 °F - 23.5 °F 33% 30.12 in 10.0 mi NNW 8.1 mph - N/A   Clear
7:35 PM 49.1 °F - 22.8 °F 36% 30.13 in 10.0 mi NW 5.8 mph - N/A   Clear
7:55 PM 48.6 °F - 22.5 °F 36% 30.14 in 10.0 mi NW 6.9 mph - N/A   Clear
8:15 PM 48.4 °F - 23.7 °F 38% 30.15 in 10.0 mi WNW 4.6 mph - N/A   Clear
8:35 PM 48.4 °F - 23.5 °F 38% 30.15 in 10.0 mi Calm Calm - N/A   Clear
8:55 PM 48.4 °F - 23.4 °F 37% 30.16 in 10.0 mi NW 8.1 mph - N/A   Clear
9:15 PM 50.9 °F - 21.2 °F 31% 30.17 in 10.0 mi Calm Calm - N/A   Clear
9:35 PM 48.2 °F - 22.3 °F 36% 30.18 in 10.0 mi Calm Calm - N/A   Clear
9:55 PM 48.4 °F - 23.2 °F 37% 30.19 in 10.0 mi North 4.6 mph - N/A   Clear
10:15 PM 48.4 °F - 21.0 °F 34% 30.19 in 10.0 mi North 8.1 mph - N/A   Clear
10:35 PM 44.2 °F 39.2 °F 23.4 °F 44% 30.20 in 10.0 mi West 9.2 mph - N/A   Clear
10:55 PM 48.4 °F - 20.1 °F 33% 30.20 in 10.0 mi NNW 8.1 mph 17.3 mph N/A   Clear
11:15 PM 46.0 °F 41.9 °F 21.4 °F 38% 30.21 in 10.0 mi WNW 8.1 mph - N/A   Clear
11:35 PM 41.7 °F 35.6 °F 22.3 °F 46% 30.20 in 10.0 mi NNW 10.4 mph - N/A   Clear
11:55 PM 43.0 °F 39.5 °F 20.7 °F 41% 30.21 in 10.0 mi NW 5.8 mph - N/A   Clear